Location: Bratislava
(48.1500°N, 17.1170°E)
Time: 16:58:20
(UTC+02:00)

ISS - Visible Passes

Search period start: 25 September 2022 00:00
Search period end: 05 October 2022 00:00
Orbit: 414 x 417 km, 51.6° (Epoch: 25 September)

Date Brightness Start Highest point End Pass type
(mag) Time Alt. Az. Time Alt. Az. Time Alt. Az.
25 Sep -3.3 20:34:47 10° WNW 20:38:05 51° N 20:38:20 49° NNE visible
26 Sep -3.0 19:46:05 10° WNW 19:49:21 45° N 19:51:30 19° ENE visible
26 Sep -1.4 21:22:54 10° WNW 21:24:22 24° WNW 21:24:22 24° WNW visible
27 Sep -3.8 20:34:13 10° WNW 20:37:32 76° N 20:37:32 76° N visible
28 Sep -3.5 19:45:31 10° WNW 19:48:52 59° NNE 19:50:42 24° E visible
28 Sep -1.1 21:22:22 10° WNW 21:23:35 19° W 21:23:35 19° W visible
29 Sep -3.4 20:33:35 10° WNW 20:36:47 57° SW 20:36:47 57° SW visible
30 Sep -3.8 19:44:50 10° WNW 19:48:12 84° SSW 19:50:00 25° ESE visible
30 Sep -0.7 21:22:12 10° W 21:22:53 13° WSW 21:22:53 13° WSW visible
01 Oct -2.2 20:33:05 10° W 20:35:58 27° SW 20:36:09 27° SSW visible
02 Oct -2.7 19:44:09 10° WNW 19:47:20 41° SSW 19:49:30 18° SSE visible
03 Oct -3.3 18:55:18 10° WNW 18:58:38 62° SSW 19:01:57 10° SE visible
03 Oct -1.0 20:33:23 10° WSW 20:34:48 12° SW 20:35:49 11° SSW visible
04 Oct -1.3 19:43:46 10° W 19:46:14 19° SW 19:48:41 10° S visible
